Wind_Speed
26 25 26 26 25 26 26 26 26 23 22 20 20 20 21 23 28 32 36 39 42 46 48 50 54 56 57 57 57 57 57 55 54 52 52 52 51 48 46 45 43 41 40 39
25 24 25 26 25 26 26 27 26 25 24 23 22 22 22 24 27 31 35 37 40 44 48 50 52 55 56 56 56 56 56 54 53 52 52 52 51 49 47 45 45 43 40 40
25 23 24 23 22 23 25 26 27 26 25 24 24 24 24 25 27 31 34 36 38 42 46 49 50 53 54 55 56 56 55 54 53 52 52 52 51 49 48 46 44 44 43 41
25 23 23 21 21 22 23 24 25 25 25 26 25 25 24 26 28 30 33 35 37 40 44 47 48 50 52 54 55 55 54 54 54 53 52 51 51 49 48 46 45 45 45 43
25 24 22 20 20 21 22 23 25 26 26 26 26 25 25 27 29 30 32 34 36 39 43 46 47 49 50 51 53 55 54 54 53 53 53 52 51 50 48 47 46 45 44 44
25 25 23 21 22 22 22 22 23 25 25 26 26 26 26 28 28 30 32 34 36 38 42 45 46 47 49 50 52 53 54 54 53 53 53 52 51 50 50 48 46 46 45 43
26 26 24 22 23 23 23 22 22 23 24 25 26 26 27 29 29 30 32 34 35 37 40 43 45 46 48 49 50 51 52 53 53 52 52 52 51 50 49 48 47 46 44 43
27 28 25 25 24 24 25 23 23 23 24 25 25 26 28 29 30 30 32 33 35 36 38 41 43 45 46 47 49 49 50 51 51 51 51 51 51 50 48 47 47 45 44 43
28 27 26 27 27 26 26 25 24 24 24 25 25 25 26 28 30 31 32 33 34 35 37 39 41 43 45 46 47 48 48 49 49 49 49 49 49 49 48 47 46 44 42 41
28 26 26 27 27 27 27 26 25 25 25 25 25 25 25 26 28 30 31 33 34 36 36 37 38 40 43 44 45 46 47 47 48 48 46 46 47 47 46 45 44 42 40 39
27 25 25 25 26 27 27 27 26 25 25 25 25 25 25 25 27 29 31 32 34 36 37 37 37 39 40 42 43 45 45 46 46 46 46 44 44 44 44 43 41 41 39 38
25 24 24 23 24 25 26 26 26 26 25 25 25 24 25 25 27 28 29 32 33 35 36 37 37 38 39 40 42 43 44 44 45 45 44 43 43 43 42 41 40 39 38 36
24 23 23 22 23 23 24 25 26 26 25 24 24 24 24 25 27 27 28 30 31 33 35 35 35 36 37 39 41 42 43 43 43 43 42 41 41 41 40 39 38 37 35 33
23 23 22 22 22 22 23 23 24 25 25 24 23 24 24 25 25 26 27 29 31 32 33 35 35 35 36 38 39 40 41 41 41 41 41 40 40 39 38 37 35 34 32 31
23 23 22 21 22 22 22 21 22 23 23 24 24 24 24 25 26 26 27 29 31 32 32 34 35 35 35 37 39 39 39 39 40 40 39 39 39 37 36 35 33 32 31 30
24 23 23 22 22 22 21 21 20 21 22 23 24 24 24 24 26 27 27 28 30 32 32 34 34 35 35 37 38 39 40 40 41 40 38 37 36 36 35 33 32 31 29 28
24 24 23 23 23 22 21 20 19 20 21 23 23 24 24 24 25 26 27 28 29 30 31 32 34 35 35 36 37 38 40 40 40 39 37 36 34 33 32 32 30 29 28 27
24 24 24 23 23 22 21 20 19 19 20 22 23 23 25 25 25 26 27 28 29 30 31 32 33 34 35 35 36 37 38 38 38 37 36 34 32 31 31 30 29 28 26 25
24 24 24 23 22 22 22 20 19 20 20 21 22 23 24 25 25 26 28 29 28 29 31 33 33 34 34 35 35 36 36 37 37 36 35 34 32 31 29 28 27 26 24 24
24 24 23 22 22 23 22 21 20 20 20 21 22 22 24 25 26 26 27 28 29 29 30 32 33 33 33 34 35 35 35 35 35 34 33 32 31 30 29 27 26 25 24 23
24 24 24 23 23 22 22 20 20 20 20 22 23 23 24 25 26 26 26 28 30 31 31 32 33 34 34 34 34 34 33 33 32 32 31 31 30 29 28 26 25 23 22 21
25 25 25 24 23 22 21 20 19 19 20 21 23 24 25 26 27 27 27 28 31 32 32 32 33 34 35 34 34 33 32 31 31 30 29 29 28 27 26 25 24 22 21 20
27 26 25 23 23 22 21 20 20 19 19 21 23 24 25 27 29 29 29 29 31 32 33 34 35 34 34 34 34 32 31 30 29 28 27 27 27 27 25 24 24 22 21 20
27 26 25 24 22 21 20 20 20 20 20 21 24 25 26 27 29 30 30 30 32 34 34 34 35 35 34 34 34 32 30 30 29 28 27 27 27 26 25 24 24 23 21 20
26 25 24 23 22 21 20 20 21 22 22 23 25 26 27 27 29 30 31 32 34 35 36 35 34 34 34 34 34 32 31 30 29 28 28 27 26 26 24 23 23 23 21 20
25 24 23 22 21 21 20 20 21 22 23 24 26 27 28 29 30 31 32 34 35 36 37 36 35 35 34 33 33 32 31 30 29 28 28 27 26 25 24 24 23 22 21 20
23 23 22 21 21 20 20 20 20 21 23 25 27 28 29 30 30 31 33 34 35 36 37 37 36 34 33 33 33 32 31 30 30 29 28 27 26 25 25 24 23 22 21 20
Wind_Direction
292 284 278 273 269 266 265 264 263 260 258 251 247 245 239 233 228 224 223 222 221 220 218 217 217 217 218 216 217 217 218 219 221 222 223 224 224 225 227 229 231 234 236 239
293 287 281 274 270 268 264 262 261 259 256 252 248 246 243 237 230 224 222 221 220 221 221 219 218 218 217 216 216 216 217 218 220 222 223 224 225 225 227 230 232 234 237 239
294 287 281 277 271 268 264 263 261 260 256 254 251 249 244 236 228 223 222 221 220 219 220 220 219 219 218 218 217 216 216 217 219 222 224 225 227 227 228 230 231 234 237 240
294 288 280 279 274 270 267 265 262 259 256 253 250 249 243 235 229 224 223 221 220 219 219 218 219 219 219 219 218 218 218 219 220 221 223 225 227 229 230 232 233 236 238 242
294 290 284 277 277 273 270 265 262 259 256 253 248 245 241 235 228 224 222 222 220 218 218 217 217 218 218 219 219 219 219 220 221 221 223 225 227 228 229 232 236 238 240 243
293 290 286 281 275 272 271 269 263 260 257 253 248 243 237 234 229 226 223 221 218 217 217 216 217 217 218 218 219 220 220 220 221 222 223 225 227 229 230 232 235 238 241 243
292 290 286 283 277 273 272 271 268 264 259 253 249 243 237 235 233 229 225 221 218 217 216 215 216 216 217 218 219 220 220 220 221 223 224 224 226 229 230 232 234 237 240 242
291 288 286 280 277 273 271 270 269 266 260 254 250 243 237 235 234 233 228 221 216 214 214 214 215 215 216 217 218 219 220 221 221 222 223 224 226 228 229 232 234 236 239 241
290 289 282 275 273 272 272 268 266 265 260 254 249 244 238 234 232 231 229 222 216 214 214 215 216 215 214 216 217 218 219 220 220 221 223 225 227 229 231 232 234 236 239 240
288 288 282 275 272 271 270 268 265 264 260 255 249 243 237 232 229 227 225 221 218 216 214 215 215 215 214 215 216 217 218 219 219 221 223 226 228 229 231 232 234 237 239 240
290 288 281 277 274 271 269 266 264 260 259 256 249 241 236 232 226 224 222 218 218 218 216 216 214 214 214 215 216 216 217 218 219 221 224 226 227 228 229 231 232 234 237 239
291 287 284 280 276 273 269 266 264 260 257 254 247 240 236 232 227 224 221 216 215 215 215 216 215 215 215 216 216 216 216 217 219 221 222 223 225 226 226 228 230 232 235 237
291 288 286 282 277 274 271 267 264 259 254 250 245 240 234 230 227 223 218 215 216 214 214 215 217 217 217 217 218 218 218 218 218 218 218 220 221 222 224 225 227 229 232 236
289 287 285 281 276 274 272 267 263 258 251 246 241 236 233 228 225 223 222 219 217 214 214 216 218 217 217 218 218 218 217 215 215 215 216 216 217 218 221 222 224 227 230 233
286 286 284 279 275 274 272 267 262 257 248 242 238 235 233 229 227 225 223 220 217 215 215 215 217 217 216 216 216 215 212 212 211 211 213 215 216 216 217 219 222 226 229 233
283 285 284 279 274 273 271 266 260 254 246 238 235 233 231 228 226 225 221 216 215 213 212 213 213 213 212 210 209 209 209 210 211 211 211 213 213 215 217 219 221 226 228 231
280 281 281 278 274 271 268 265 259 252 245 236 233 230 228 226 224 222 218 214 212 210 210 209 208 208 207 205 204 205 208 209 210 209 207 208 211 213 215 217 220 222 225 229
279 280 281 278 273 270 266 261 256 249 245 237 231 229 226 224 222 219 216 211 209 208 207 204 203 202 202 201 201 201 201 203 204 205 207 208 210 212 214 216 218 220 224 228
278 277 278 277 273 269 265 259 254 250 243 234 228 226 221 219 218 215 213 210 207 205 203 200 199 198 198 198 199 198 198 199 201 203 205 207 210 211 213 214 216 219 224 228
278 277 277 276 274 271 266 260 253 248 243 233 226 222 219 217 215 212 210 207 203 200 198 196 196 196 195 195 196 197 197 196 197 200 204 206 209 211 213 215 216 219 223 226
277 276 276 276 274 270 266 259 252 245 239 230 224 220 216 213 210 207 206 203 200 198 195 195 196 196 195 193 194 196 196 197 198 200 204 206 208 211 213 214 215 217 221 225
275 275 274 271 270 268 263 255 248 240 232 226 221 216 211 207 204 202 201 198 197 197 196 194 193 195 195 194 194 194 195 198 200 201 202 204 207 209 211 214 216 218 221 225
274 272 270 267 266 263 257 250 243 234 226 220 215 209 206 203 201 198 196 195 195 195 195 194 193 194 194 193 192 192 194 195 197 199 202 204 205 207 211 214 217 220 221 224
272 269 266 264 261 255 249 243 238 231 223 215 209 205 203 200 199 198 196 193 191 191 192 193 193 192 192 192 192 192 193 194 196 199 201 203 205 207 210 213 216 219 222 225
269 266 263 259 255 250 245 240 235 228 220 213 207 202 200 199 198 197 196 194 192 191 192 192 191 192 193 193 194 195 195 195 197 199 199 201 204 206 208 212 216 220 222 222
266 263 258 254 249 244 239 234 229 221 215 209 205 201 199 197 196 196 195 193 193 193 192 191 192 192 193 194 195 196 196 196 197 199 201 203 205 207 208 211 215 218 218 219
261 258 253 247 242 237 232 227 221 215 211 206 202 199 197 196 195 194 193 192 192 192 191 192 193 194 194 194 193 195 195 196 198 200 202 205 207 208 209 212 214 215 216 221
Height
5476 5475 5473 5473 5473 5473 5473 5472 5473 5474 5475 5476 5477 5478 5480 5483 5486 5491 5497 5503 5510 5517 5526 5534 5544 5553 5563 5572 5582 5591 5601 5610 5619 5628 5635 5642 5649 5655 5662 5668 5673 5678 5683 5687
5471 5469 5467 5467 5467 5467 5467 5467 5467 5468 5470 5471 5471 5473 5475 5477 5480 5485 5490 5496 5503 5510 5518 5527 5536 5545 5554 5564 5573 5582 5592 5602 5611 5619 5626 5633 5640 5646 5653 5659 5665 5670 5674 5679
5465 5463 5461 5461 5462 5461 5461 5461 5461 5462 5465 5465 5466 5468 5469 5472 5475 5479 5484 5490 5496 5503 5511 5519 5528 5537 5546 5555 5565 5574 5584 5593 5602 5610 5617 5625 5632 5638 5644 5651 5656 5662 5666 5671
5459 5458 5456 5458 5456 5455 5455 5455 5455 5456 5457 5459 5460 5462 5463 5466 5469 5473 5478 5484 5490 5496 5504 5512 5520 5529 5538 5547 5556 5566 5575 5584 5592 5601 5609 5616 5623 5630 5637 5642 5648 5653 5658 5662
5453 5451 5450 5452 5451 5450 5449 5450 5450 5450 5451 5452 5454 5456 5458 5460 5463 5467 5472 5477 5483 5489 5496 5504 5512 5521 5529 5538 5547 5557 5566 5575 5584 5592 5600 5607 5614 5621 5628 5634 5640 5645 5649 5654
5448 5445 5445 5448 5445 5443 5444 5444 5444 5444 5444 5446 5447 5450 5453 5454 5457 5461 5465 5470 5476 5482 5489 5496 5504 5513 5522 5530 5539 5548 5558 5566 5575 5583 5591 5598 5606 5612 5619 5625 5631 5636 5641 5645
5442 5439 5439 5441 5438 5438 5439 5439 5438 5437 5437 5439 5440 5443 5446 5448 5451 5454 5458 5463 5468 5474 5481 5489 5497 5505 5514 5523 5532 5541 5549 5557 5566 5574 5582 5589 5596 5603 5610 5616 5622 5627 5632 5637
5435 5433 5436 5433 5432 5431 5431 5431 5431 5431 5431 5432 5433 5435 5438 5441 5444 5448 5452 5456 5462 5468 5475 5482 5490 5498 5507 5516 5524 5532 5541 5549 5558 5565 5573 5580 5587 5594 5600 5606 5613 5618 5623 5628
5429 5430 5427 5425 5424 5424 5424 5424 5424 5424 5424 5425 5427 5429 5432 5435 5438 5442 5446 5451 5456 5462 5469 5476 5483 5491 5499 5508 5515 5524 5532 5541 5549 5557 5564 5571 5578 5585 5591 5598 5604 5610 5615 5619
5421 5421 5419 5417 5416 5416 5416 5416 5416 5417 5418 5419 5421 5423 5426 5429 5432 5436 5440 5445 5451 5457 5463 5470 5476 5484 5492 5500 5508 5516 5524 5532 5540 5548 5556 5563 5570 5576 5583 5590 5596 5602 5607 5611
5413 5413 5411 5410 5409 5408 5408 5408 5409 5410 5411 5412 5414 5417 5420 5423 5426 5430 5435 5440 5445 5451 5458 5464 5471 5478 5485 5493 5500 5508 5516 5524 5532 5540 5547 5554 5561 5568 5575 5582 5588 5594 5599 5603
5407 5405 5403 5403 5402 5401 5401 5401 5402 5403 5405 5406 5408 5410 5413 5417 5420 5425 5429 5434 5440 5446 5452 5459 5466 5473 5479 5486 5494 5501 5509 5517 5524 5532 5539 5546 5553 5560 5566 5574 5580 5585 5590 5595
5399 5398 5396 5396 5395 5394 5394 5394 5395 5396 5398 5399 5401 5404 5407 5411 5414 5419 5424 5429 5434 5440 5446 5453 5460 5467 5473 5480 5487 5494 5502 5509 5517 5524 5532 5539 5546 5553 5560 5566 5571 5577 5583 5588
5392 5391 5390 5389 5388 5388 5387 5387 5388 5389 5390 5392 5395 5398 5401 5405 5409 5413 5418 5423 5428 5434 5440 5447 5453 5460 5467 5474 5480 5487 5495 5502 5509 5517 5525 5533 5540 5547 5553 5560 5565 5571 5576 5581
5386 5384 5384 5383 5382 5381 5380 5380 5381 5382 5384 5386 5389 5392 5395 5399 5403 5407 5412 5417 5422 5428 5434 5440 5447 5454 5460 5467 5474 5481 5489 5496 5504 5512 5519 5527 5533 5540 5547 5553 5559 5565 5570 5574
5379 5378 5377 5376 5375 5375 5374 5374 5375 5376 5377 5380 5383 5386 5389 5393 5397 5401 5406 5411 5416 5422 5428 5434 5441 5447 5454 5461 5468 5475 5483 5491 5499 5507 5514 5521 5528 5535 5541 5548 5554 5559 5564 5569
5372 5371 5370 5369 5369 5368 5368 5368 5369 5370 5371 5374 5377 5380 5383 5387 5392 5396 5400 5405 5411 5417 5423 5428 5435 5441 5448 5455 5463 5470 5478 5486 5494 5501 5509 5516 5523 5530 5536 5542 5548 5554 5558 5563
5365 5364 5364 5363 5362 5362 5362 5362 5363 5364 5366 5368 5371 5374 5377 5382 5386 5390 5395 5400 5406 5411 5417 5423 5429 5436 5443 5450 5458 5466 5474 5481 5489 5497 5504 5512 5519 5525 5532 5537 5543 5548 5552 5557
5358 5358 5357 5356 5355 5355 5355 5356 5357 5358 5360 5362 5365 5368 5372 5376 5381 5385 5390 5395 5401 5407 5412 5419 5425 5432 5439 5447 5455 5462 5470 5478 5486 5493 5500 5507 5514 5521 5527 5533 5538 5543 5547 5552
5351 5350 5350 5349 5349 5348 5348 5349 5350 5351 5353 5356 5359 5363 5367 5371 5376 5381 5385 5391 5397 5402 5409 5416 5423 5429 5436 5444 5451 5459 5467 5474 5482 5489 5496 5503 5510 5517 5523 5528 5534 5538 5543 5547
5344 5343 5342 5342 5342 5341 5341 5342 5343 5345 5347 5350 5354 5358 5362 5366 5371 5376 5382 5388 5394 5399 5406 5413 5420 5427 5434 5441 5449 5457 5464 5471 5479 5486 5493 5500 5506 5512 5518 5524 5529 5533 5538 5542
5335 5335 5334 5334 5334 5334 5334 5335 5336 5338 5341 5344 5348 5352 5357 5362 5367 5373 5378 5384 5391 5397 5404 5411 5418 5425 5432 5439 5447 5454 5462 5469 5476 5483 5489 5496 5502 5508 5514 5519 5524 5529 5533 5537
5326 5325 5325 5325 5326 5326 5327 5328 5330 5332 5335 5338 5343 5347 5352 5357 5363 5369 5375 5381 5387 5394 5401 5408 5415 5423 5430 5437 5445 5452 5459 5466 5473 5480 5486 5492 5498 5504 5510 5515 5520 5525 5529 5532
5316 5316 5317 5317 5318 5319 5320 5322 5324 5327 5330 5334 5338 5343 5348 5353 5359 5365 5372 5378 5384 5391 5398 5405 5412 5420 5427 5435 5443 5450 5457 5464 5470 5476 5482 5488 5494 5500 5505 5511 5516 5520 5524 5528
5307 5307 5308 5308 5310 5311 5313 5315 5318 5321 5324 5329 5333 5338 5344 5349 5356 5362 5368 5375 5381 5388 5395 5403 5410 5417 5424 5432 5440 5447 5454 5461 5467 5473 5479 5485 5491 5496 5501 5506 5511 5515 5519 5523
5298 5298 5299 5300 5302 5304 5306 5308 5311 5315 5319 5323 5329 5334 5340 5345 5352 5358 5364 5371 5378 5385 5392 5400 5407 5414 5422 5429 5436 5444 5451 5457 5464 5470 5476 5481 5487 5492 5497 5502 5507 5511 5515 5519
5289 5290 5291 5293 5295 5297 5299 5302 5306 5309 5313 5318 5324 5330 5335 5342 5348 5354 5361 5368 5375 5382 5390 5397 5404 5412 5419 5426 5433 5440 5447 5453 5460 5466 5472 5478 5483 5488 5493 5498 5502 5507 5511 5514